Regional Weather Roundup
Issued by NWS

Home | Current Version | Previous Version | Graphics & Text | Print | Product List | Glossary On
Versions: 1 2 3 4 5 6 7 8 9 10 11 12 13 14 15 16 17 18 19 20 21 22 23 24 25 26 27 28 29 30 31 32 33 34 35 36 37 38 39 40 41 42 43 44 45 46 47 48 49 50
000
ASUS43 KOAX 120602
RWRNE

WEATHER ROUNDUP FOR NEBRASKA
NATIONAL WEATHER SERVICE OMAHA NE
1200 AM CST FRI FEB 12 2016

NOTES: SATELLITE DATA IS BEING USED TO AUGMENT CLOUD COVER ABOVE
       12000 FEET.
       "FAIR" INDICATES FEW OR NO CLOUDS BELOW 12,000 FEET WITH NO
       SIGNIFICANT WEATHER AND/OR OBSTRUCTIONS TO VISIBILITY.

  * THESE STATIONS DO NOT REPORT WEATHER SUCH AS RAIN...SNOW OR FOG.

NEZ001>004-019>022-054>056-120700-
NEBRASKA PANHANDLE

CITY           SKY/WX    TMP DP  RH WIND       PRES   REMARKS
SCOTTSBLUFF    CLEAR     33  27  78 N3        30.24R
6HR MIN TEMP:  32; 6HR MAX TEMP:  51;

ALLIANCE       CLOUDY    31  26  82 NW7       30.21S WCI  24
6HR MIN TEMP:  30; 6HR MAX TEMP:  46;

CHADRON        CLOUDY    30  27  88 NE5       30.24R WCI  25
6HR MIN TEMP:  28; 6HR MAX TEMP:  50;

SIDNEY         CLEAR     31  26  82 NW12      30.23F WCI  22
6HR MIN TEMP:  31; 6HR MAX TEMP:  44;

$$

NEZ057>060-069>072-079>082-120700-
SOUTHWEST NEBRASKA

CITY           SKY/WX    TMP DP  RH WIND       PRES   REMARKS
NORTH PLATTE   CLEAR     35  29  78 NW7       30.22R WCI  29
6HR MIN TEMP:  32; 6HR MAX TEMP:  45;

IMPERIAL       CLOUDY    37  28  70 NW8       30.23R WCI  31
6HR MIN TEMP:  37; 6HR MAX TEMP:  49;

MCCOOK         CLOUDY    34  28  79 NW6       30.21R WCI  29
6HR MIN TEMP:  34; 6HR MAX TEMP:  45;

$$

NEZ005>010-023>029-035>040-094-120700-
NORTH CENTRAL NEBRASKA

CITY           SKY/WX    TMP DP  RH WIND       PRES   REMARKS
VALENTINE      CLOUDY    29  27  92 CALM      30.23S
6HR MIN TEMP:  29; 6HR MAX TEMP:  42;

AINSWORTH      CLOUDY    29  28  93 NW7       30.22S WCI  22
BROKEN BOW     CLOUDY    32  29  88 N13       30.22R WCI  22
6HR MIN TEMP:  32; 6HR MAX TEMP:  42;

ORD            MOCLDY    29  26  89 N10       30.22R WCI  20
6HR MIN TEMP:  29; 6HR MAX TEMP:  38;

$$

NEZ041-046>049-061>064-073>077-083>087-120700-
SOUTH CENTRAL NEBRASKA

CITY           SKY/WX    TMP DP  RH WIND       PRES   REMARKS
GRAND ISLAND   CLOUDY    31  26  82 N20       30.21R WCI  19
6HR MIN TEMP:  25; 6HR MAX TEMP:  32;

HASTINGS       CLOUDY    32  28  85 N12       30.21R WCI  23
6HR MIN TEMP:  28; 6HR MAX TEMP:  33;

KEARNEY *      CLOUDY    32  28  86 N10       30.22R WCI  24
$$

NEZ011>018-030>034-042>045-120700-
NORTHEAST NEBRASKA

CITY           SKY/WX    TMP DP  RH WIND       PRES   REMARKS
NORFOLK        CLOUDY    26  23  88 NW8       30.22R FOG     WCI  18
6HR MIN TEMP:  26; 6HR MAX TEMP:  27; 6HR PCP: TRACE;

BLAIR          CLOUDY    23  20  89 N3        30.21R
COLUMBUS *     CLOUDY    27  18  69 N7        30.22R WCI  19
TEKAMAH        CLOUDY    20  18  92 N9        30.25R WCI   9
6HR MIN TEMP:  20; 6HR MAX TEMP:  22; 6HR PCP:  0.01;

$$

NEZ050>053-065>068-078-088>093-120700-
SOUTHEAST NEBRASKA

CITY           SKY/WX    TMP DP  RH WIND       PRES   REMARKS
LINCOLN        CLOUDY    30  25  81 N5        30.23R WCI  25
6HR MIN TEMP:  28; 6HR MAX TEMP:  30;

OMAHA EPPLEY   CLOUDY    24  20  84 N6        30.23R WCI  17
6HR MIN TEMP:  24; 6HR MAX TEMP:  27; 6HR PCP: TRACE;

BEATRICE       CLOUDY    28  26  90 NE6       30.19S WCI  22
FALLS CITY     CLOUDY    31  23  72 N5        30.20R WCI  26
6HR MIN TEMP:  28; 6HR MAX TEMP:  33;

NEBRASKA CITY  CLOUDY    30  25  83 N7        30.20S WCI  23
$$

NEZ044-045-051>053-067-120700-
OMAHA AREA

CITY           SKY/WX    TMP DP  RH WIND       PRES   REMARKS
OMAHA EPPLEY   CLOUDY    24  20  84 N6        30.23R WCI  17
6HR MIN TEMP:  24; 6HR MAX TEMP:  27; 6HR PCP: TRACE;

BLAIR          CLOUDY    23  20  89 N3        30.21R
OFFUTT AFB     CLOUDY    26  20  80 N3        30.22R
WAHOO          CLOUDY    27  24  88 NE5       30.22R WCI  21
$$



USA.gov is the U.S. government's official web portal to all federal, state and local government web resources and services.